FENGYUN 1C DEB, 30286

Orbit data source: Space-Track

FENGYUN 1C DEB, 30286 is space debris in SSO originally from a launch on Mon, 10 May 1999 UTC launched from the Taiyaun Space Center, China (TSC). Fengyun 1C debris stems from the Chinese weather satellite Fengyun-1C, which was intentionally destroyed by a Chinese anti-satellite missile in 2007. This event dramatically increased the amount of space debris, with thousands of trackable fragments posing hazards to satellites and human spaceflight. The Fengyun 1C debris cloud has become a focal point in discussions about space sustainability and the need for international regulations to prevent the creation of new debris.

Loading next visibility...
Identifier
30286, 1999-025YX
Orbit
SSO
Country
Flag of CNCN / PRC
Related business
Manufacturer
Unknown
Mission
Spacecraft
Bus & Motor
Unknown
Mass
Unknown
Launch date (UTC)
1999-05-10 (27 years ago)
Launch vehicle
Unknown
Launch site
Taiyaun Space Center, China (TSC)
Object type
Payload
Rocket body
Debris
Shape & HBR
Unknown shape, 0.1 m
Radar Cross Section
Medium (>0.1 m² and <1 m²)

Expand to show TLE details & history
Last TLE update: 22 hours ago

TLE from 22 hours ago
0 FENGYUN 1C DEB
1 30286U 99025YX  26150.54460212  .00000168  00000-0  11110-3 0  9994
2 30286  98.6900 154.9541 0064178  13.6237 103.3171 14.12788955998428
Epoch: 2026-05-30T13:04Z
TLE epoch observation values (Epoch: 2026-05-30T13:04:13.623Z)
Latitude
61.20939°
Longitude
-93.10053°
Altitude
871.236 km
Speed
7.417 km/s
True Right ascension
23h 24m 03s
True Declination
61° 03' 59"
Sunlit
Object was in daylight at epoch
Visualization orbit readout
Latitude
Unknown
Longitude
Unknown
Altitude
Unknown
Speed
Unknown
Apparent Right ascension
Unknown
Apparent Declination
Unknown
Sunlit
N/A
Visualization observer readout
Local Sidereal Time
20:32:38
Azimuth
Unknown
Elevation
Unknown
Doppler factor
Unknown
Orbital elements
Apogee altitude
893.38 km
Perigee altitude
800.641 km
Semi-major axis
7,225.148 km
Eccentricity
0.00642
Inclination
98.69°
RAAN
154.9541°
Arg. of periapsis
13.6237°
True anomaly
104.03141°
Mean anomaly
103.3171°
Eccentric anomaly
103.67439°
Mean motion
3.53405 °/min
Orbital period
101.87 mins
BSTAR
0.0001111
Loading maneuver chart data...
Computing Atmospheric mass density...
Loading historical data...
Loading historical data...
Loading historical data...
Loading historical data...
Loading historical data...
Loading historical data...
Loading historical data...

Documentation

Showing up to 5 results
|